Weather History for New Richmond, WI

Change the Weather History Date:

Wednesday, May 29, 2013

  Actual Average (KMSP) Record (KMSP)
Temperature  
Mean Temperature 64 °F 63 °F  
Max Temperature 74 °F 73 °F 94 °F (2006)
Min Temperature 55 °F 53 °F 33 °F (1965)
Degree Days  
Heating Degree Days 0 4  
Month to date heating degree days 210  
Since 1 July heating degree days 7528  
Cooling Degree Days 0 2  
Month to date cooling degree days 34  
Year to date cooling degree days 39  
Growing Degree Days 14 (Base 50)    
Moisture  
Dew Point 60 °F    
Average Humidity 87    
Maximum Humidity 100    
Minimum Humidity 69    
Precipitation  
Precipitation 0.14 in 0.10 in 2.49 in (1942)
Month to date precipitation 3.13  
Year to date precipitation 9.35  
Snow  
Snow 0.00 in 0.00 in 0.00 in ()
Month to date snowfall 0.0  
Since 1 July snowfall 54.4  
Snow Depth -    
Sea Level Pressure  
Sea Level Pressure 29.77 in    
Wind  
Wind Speed 5 mph (SSE)    
Max Wind Speed 14 mph    
Max Gust Speed 21 mph    
Visibility 7 miles    
Events Rain    
T = Trace of Precipitation, MM = Missing Value Source: NWS Daily Summary

Daily Weather History Graph

Daily Weather History Graph

Search for Another Location

Airport:

Trip Planner

Search our weather history database for the weather conditions in past years. The results will help you decide how hot, cold, wet, or windy it might be!

Date:

Astronomy

May. 29, 2013 Rise Set
Actual Time 5:27 AM CDT 8:47 PM CDT
Civil Twilight 4:51 AM CDT 9:24 PM CDT
Nautical Twilight 4:04 AM CDT 10:11 PM CDT
Astronomical Twilight 3:05 AM CDT 11:11 PM CDT
Moon 12:04 AM CDT (5/29) 10:35 AM CDT (5/29)
Length of Visible Light 16h 32m
Length of Day
15h 20m
Waning Gibbous, 73% of the Moon is Illuminated
May 29
Waning Gibbous
May 31
Last Quarter
Jun 8
New
Jun 16
First Quarter
Jun 23
Full

Hourly Weather History & Observations

Time (CDT) Temp. Dew Point Humidity Pressure Visibility Wind Dir Wind Speed Gust Speed Precip Events Conditions
12:15 AM 56.3 °F 56.3 °F 100% 29.80 in 3.0 mi Calm Calm - N/A   Overcast
12:35 AM 56.3 °F 56.3 °F 100% 29.79 in 4.0 mi Calm Calm - N/A   Overcast
12:55 AM 56.3 °F 56.3 °F 100% 29.79 in 4.0 mi South 3.5 mph - N/A   Overcast
1:15 AM 56.3 °F 56.3 °F 100% 29.79 in 4.0 mi South 3.5 mph - N/A   Overcast
1:35 AM 56.3 °F 55.9 °F 99% 29.79 in 3.0 mi SSW 5.8 mph - N/A   Overcast
1:55 AM 56.3 °F 55.9 °F 99% 29.81 in 3.0 mi SW 4.6 mph - N/A   Overcast
2:15 AM 55.9 °F 55.8 °F 99% 29.79 in 2.5 mi Calm Calm - N/A   Overcast
2:35 AM 55.9 °F 55.8 °F 99% 29.78 in 2.5 mi South 3.5 mph - N/A   Overcast
2:55 AM 55.8 °F 55.6 °F 99% 29.78 in 2.5 mi Calm Calm - N/A   Overcast
3:15 AM 55.9 °F 55.9 °F 100% 29.80 in 2.0 mi SSW 4.6 mph - N/A   Overcast
3:35 AM 55.8 °F 55.6 °F 99% 29.81 in 2.5 mi South 4.6 mph - N/A   Overcast
3:55 AM 55.8 °F 55.6 °F 99% 29.82 in 2.5 mi SSW 3.5 mph - N/A   Overcast
4:15 AM 55.8 °F 55.8 °F 100% 29.81 in 1.8 mi Calm Calm - N/A   Light Drizzle
4:35 AM 55.6 °F 55.6 °F 100% 29.81 in 1.5 mi Calm Calm - N/A   Overcast
4:55 AM 55.4 °F 55.4 °F 100% 29.81 in 1.5 mi Calm Calm - N/A   Overcast
5:15 AM 55.4 °F 55.4 °F 100% 29.82 in 1.8 mi Calm Calm - N/A   Overcast
5:35 AM 55.4 °F 55.4 °F 100% 29.81 in 1.5 mi Calm Calm - N/A   Overcast
5:55 AM 55.4 °F 55.4 °F 100% 29.80 in 1.8 mi Calm Calm - N/A   Overcast
6:15 AM 55.4 °F 55.4 °F 100% 29.81 in 1.5 mi SSE 3.5 mph - N/A   Overcast
6:35 AM 55.6 °F 55.6 °F 100% 29.81 in 1.8 mi SE 3.5 mph - N/A   Overcast
6:55 AM 55.8 °F 55.8 °F 100% 29.82 in 2.0 mi SSE 5.8 mph - N/A   Overcast
7:15 AM 55.9 °F 55.9 °F 100% 29.83 in 2.5 mi SE 5.8 mph - N/A   Overcast
7:35 AM 56.5 °F 56.1 °F 99% 29.82 in 4.0 mi ESE 3.5 mph - N/A   Overcast
7:55 AM 57.2 °F 56.3 °F 97% 29.83 in 3.0 mi SSE 3.5 mph - N/A   Overcast
8:15 AM 57.9 °F 56.3 °F 94% 29.82 in 4.0 mi SE 3.5 mph - N/A   Overcast
8:35 AM 59.2 °F 57.2 °F 93% 29.84 in 5.0 mi SSE 5.8 mph - N/A   Overcast
8:55 AM 60.1 °F 56.1 °F 87% 29.84 in 10.0 mi SE 5.8 mph - N/A   Overcast
9:15 AM 62.2 °F 57.0 °F 83% 29.85 in 10.0 mi South 4.6 mph - N/A   Mostly Cloudy
9:35 AM 63.3 °F 59.0 °F 86% 29.85 in 10.0 mi South 6.9 mph - N/A   Mostly Cloudy
9:55 AM 63.5 °F 58.3 °F 83% 29.84 in 10.0 mi ESE 4.6 mph - N/A   Scattered Clouds
10:15 AM 65.3 °F 59.0 °F 80% 29.81 in 10.0 mi ENE 5.8 mph - N/A   Clear
10:35 AM 66.2 °F 58.6 °F 77% 29.81 in 10.0 mi ESE 5.8 mph - N/A   Clear
10:55 AM 67.6 °F 58.6 °F 73% 29.80 in 10.0 mi SE 8.1 mph - N/A   Scattered Clouds
11:15 AM 68.5 °F 59.0 °F 72% 29.79 in 10.0 mi SE 9.2 mph - N/A   Scattered Clouds
11:35 AM 68.5 °F 59.7 °F 73% 29.80 in 10.0 mi SSE 10.4 mph - N/A   Scattered Clouds
11:55 AM 68.5 °F 59.9 °F 74% 29.81 in 10.0 mi SSE 9.2 mph 16.1 mph N/A   Mostly Cloudy
12:15 PM 68.9 °F 60.3 °F 74% 29.81 in 10.0 mi SE 10.4 mph - N/A   Mostly Cloudy
12:35 PM 70.5 °F 61.5 °F 73% 29.79 in 10.0 mi SE 10.4 mph - N/A   Scattered Clouds
12:55 PM 70.9 °F 61.7 °F 73% 29.79 in 10.0 mi ESE 9.2 mph - N/A   Scattered Clouds
1:15 PM 72.3 °F 62.8 °F 72% 29.79 in 7.0 mi SE 10.4 mph - N/A   Scattered Clouds
1:35 PM 72.9 °F 62.6 °F 70% 29.78 in 10.0 mi SE 10.4 mph 16.1 mph N/A   Scattered Clouds
1:55 PM 73.9 °F 63.5 °F 70% 29.77 in 10.0 mi ESE 11.5 mph 16.1 mph N/A   Scattered Clouds
2:15 PM 74.1 °F 63.5 °F 69% 29.76 in 10.0 mi SE 8.1 mph - N/A   Scattered Clouds
2:35 PM 73.6 °F 63.5 °F 71% 29.77 in 10.0 mi SSE 10.4 mph - N/A   Mostly Cloudy
2:55 PM 73.8 °F 63.5 °F 70% 29.77 in 10.0 mi South 13.8 mph - N/A   Overcast
3:15 PM 73.2 °F 63.1 °F 71% 29.77 in 10.0 mi SSE 5.8 mph - N/A   Overcast
3:35 PM 73.4 °F 63.1 °F 70% 29.75 in 10.0 mi SE 6.9 mph - N/A   Mostly Cloudy
3:55 PM 73.2 °F 63.3 °F 71% 29.75 in 10.0 mi ESE 6.9 mph - N/A   Overcast
4:15 PM 73.0 °F 64.4 °F 74% 29.74 in 7.0 mi SE 11.5 mph 16.1 mph N/A Rain Light Rain
4:35 PM 74.5 °F 64.4 °F 71% 29.72 in 10.0 mi SE 11.5 mph 17.3 mph N/A   Scattered Clouds
4:55 PM 72.1 °F 65.1 °F 78% 29.71 in 5.0 mi SE 9.2 mph - 0.02 in Rain Heavy Rain
5:15 PM 71.8 °F 67.3 °F 86% 29.69 in 7.0 mi ESE 8.1 mph - N/A   Scattered Clouds
5:35 PM 72.0 °F 66.4 °F 83% 29.69 in 10.0 mi SE 9.2 mph - N/A   Clear
5:55 PM 71.8 °F 66.4 °F 83% 29.68 in 10.0 mi ESE 6.9 mph - N/A   Clear
6:15 PM 71.6 °F 66.2 °F 83% 29.69 in 10.0 mi SE 8.1 mph - N/A   Clear
6:35 PM 71.1 °F 65.5 °F 82% 29.70 in 10.0 mi SSE 8.1 mph - N/A   Clear
6:55 PM 70.5 °F 63.7 °F 79% 29.70 in 10.0 mi SSE 10.4 mph - N/A   Clear
7:15 PM 69.1 °F 61.7 °F 77% 29.70 in 10.0 mi SSE 8.1 mph 18.4 mph N/A   Clear
7:35 PM 68.0 °F 62.1 °F 81% 29.70 in 10.0 mi SE 9.2 mph - N/A   Clear
7:55 PM 67.1 °F 61.9 °F 83% 29.70 in 10.0 mi SE 6.9 mph - N/A   Clear
8:15 PM 66.2 °F 61.9 °F 86% 29.70 in 10.0 mi ESE 5.8 mph - N/A   Clear
8:35 PM 65.7 °F 61.3 °F 86% 29.71 in 10.0 mi SE 6.9 mph - N/A   Clear
8:55 PM 65.1 °F 62.1 °F 90% 29.71 in 10.0 mi SSE 9.2 mph - N/A   Clear
9:15 PM 64.9 °F 62.6 °F 92% 29.72 in 10.0 mi SSE 10.4 mph - N/A   Scattered Clouds
9:35 PM 64.9 °F 62.6 °F 92% 29.73 in 10.0 mi SSE 11.5 mph 17.3 mph N/A   Scattered Clouds
9:55 PM 64.9 °F 62.6 °F 92% 29.72 in 10.0 mi SSE 11.5 mph - N/A   Scattered Clouds
10:15 PM 64.6 °F 62.1 °F 92% 29.73 in 10.0 mi SSE 11.5 mph 16.1 mph N/A   Scattered Clouds
10:35 PM 64.6 °F 62.1 °F 92% 29.74 in 10.0 mi SSE 10.4 mph - N/A Rain Light Rain
10:55 PM 63.7 °F 62.6 °F 96% 29.75 in 7.0 mi SSE 13.8 mph 20.7 mph 0.04 in Rain Rain
11:15 PM 63.5 °F 62.6 °F 97% 29.74 in 10.0 mi SSE 11.5 mph - 0.04 in Rain Rain
11:35 PM 63.1 °F 62.6 °F 98% 29.73 in 10.0 mi SE 11.5 mph 17.3 mph 0.05 in Rain Light Rain
11:55 PM 63.1 °F 62.6 °F 98% 29.74 in 7.0 mi SSE 5.8 mph - 0.08 in Rain Heavy Rain